When you browse on this site, cookies collect data to enhance your experience and personalize the content and advertising you see.
Visit our Privacy Policy to learn more. By continuing to use the site, you agree to this use of cookies and data.
  • en Belgique
  • Liste des pays
  • À 7 jours
  • Température de l'eau
  • Carte météo
  • Widgets météo
  • user-avatar
    Se connecter

    Météo par heure à Phnom Penh

    Ce jour, 19 Novembre, Mardi

    Heure Température Précipitation Vent Pression Humidité
    00:00 +27°C° 0.3 mm 1 m/s 757 mmHg 83%
    01:00 +27°C° 0 mm 1 m/s 756 mmHg 85%
    02:00 +27°C° 0.2 mm 1 m/s 756 mmHg 86%
    03:00 +26°C° 0.2 mm 1 m/s 756 mmHg 87%
    04:00 +26°C° 0.2 mm 1 m/s 756 mmHg 88%
    05:00 +26°C° 0 mm 1 m/s 757 mmHg 89%
    06:00 +26°C° 0 mm 2 m/s 757 mmHg 90%
    07:00 +26°C° 0 mm 2 m/s 757 mmHg 91%
    08:00 +27°C° 0 mm 3 m/s 758 mmHg 82%
    09:00 +29°C° 0 mm 3 m/s 758 mmHg 74%
    10:00 +30°C° 0 mm 4 m/s 758 mmHg 65%
    11:00 +32°C° 0 mm 4 m/s 757 mmHg 62%
    12:00 +33°C° 0 mm 5 m/s 757 mmHg 58%
    13:00 +34°C° 0 mm 5 m/s 756 mmHg 54%
    14:00 +33°C° 0 mm 5 m/s 756 mmHg 56%
    15:00 +33°C° 0 mm 4 m/s 756 mmHg 58%
    16:00 +33°C° 0 mm 4 m/s 755 mmHg 59%
    17:00 +30°C° 0 mm 4 m/s 756 mmHg 63%
    18:00 +29°C° 0 mm 3 m/s 756 mmHg 67%
    19:00 +28°C° 0 mm 3 m/s 756 mmHg 71%
    20:00 +27°C° 0 mm 3 m/s 757 mmHg 71%
    21:00 +27°C° 0 mm 3 m/s 757 mmHg 71%
    22:00 +26°C° 0 mm 3 m/s 758 mmHg 71%
    23:00 +26°C° 0 mm 3 m/s 758 mmHg 70%

    Demain, 20 Novembre, Mercredi

    Heure Température Précipitation Vent Pression Humidité
    00:00 +25°C° 0 mm 4 m/s 758 mmHg 70%
    01:00 +25°C° 0 mm 4 m/s 757 mmHg 70%
    02:00 +23°C° 0 mm 4 m/s 757 mmHg 71%
    03:00 +24°C° 0 mm 3 m/s 757 mmHg 71%
    04:00 +22°C° 0 mm 3 m/s 756 mmHg 72%
    05:00 +22°C° 0 mm 3 m/s 757 mmHg 74%
    06:00 +22°C° 0 mm 3 m/s 758 mmHg 75%
    07:00 +22°C° 0 mm 3 m/s 758 mmHg 77%
    08:00 +25°C° 0 mm 4 m/s 758 mmHg 72%
    09:00 +27°C° 0 mm 5 m/s 759 mmHg 67%
    10:00 +29°C° 0 mm 6 m/s 759 mmHg 62%
    11:00 +30°C° 0 mm 6 m/s 758 mmHg 60%
    12:00 +32°C° 0 mm 6 m/s 757 mmHg 58%
    13:00 +32°C° 0 mm 6 m/s 757 mmHg 57%
    14:00 +32°C° 0 mm 5 m/s 756 mmHg 58%
    15:00 +32°C° 0 mm 5 m/s 755 mmHg 59%
    16:00 +32°C° 0 mm 5 m/s 755 mmHg 60%
    17:00 +30°C° 0 mm 4 m/s 755 mmHg 66%
    18:00 +28°C° 0 mm 3 m/s 756 mmHg 71%
    19:00 +27°C° 0 mm 3 m/s 756 mmHg 76%
    20:00 +27°C° 0 mm 3 m/s 757 mmHg 76%
    21:00 +26°C° 0 mm 2 m/s 757 mmHg 77%
    22:00 +26°C° 0 mm 2 m/s 758 mmHg 78%
    23:00 +25°C° 0 mm 3 m/s 757 mmHg 78%

    Après-demain, 21 Novembre, Jeudi

    Heure Température Précipitation Vent Pression Humidité
    00:00 +25°C° 0 mm 3 m/s 757 mmHg 78%
    01:00 +24°C° 0 mm 3 m/s 757 mmHg 78%
    02:00 +24°C° 0 mm 3 m/s 757 mmHg 78%
    03:00 +22°C° 0 mm 4 m/s 757 mmHg 77%
    04:00 +22°C° 0 mm 4 m/s 756 mmHg 77%
    05:00 +22°C° 0 mm 4 m/s 757 mmHg 78%
    06:00 +22°C° 0 mm 4 m/s 757 mmHg 79%
    07:00 +22°C° 0 mm 4 m/s 758 mmHg 81%
    08:00 +25°C° 0 mm 4 m/s 758 mmHg 75%
    09:00 +27°C° 0 mm 5 m/s 758 mmHg 70%
    10:00 +29°C° 0 mm 6 m/s 758 mmHg 65%
    11:00 +30°C° 0 mm 6 m/s 758 mmHg 63%
    12:00 +32°C° 0 mm 5 m/s 757 mmHg 60%
    13:00 +33°C° 0 mm 5 m/s 756 mmHg 58%
    14:00 +33°C° 0 mm 5 m/s 756 mmHg 59%
    15:00 +33°C° 0 mm 5 m/s 755 mmHg 60%
    16:00 +32°C° 0 mm 5 m/s 755 mmHg 62%
    17:00 +30°C° 0 mm 5 m/s 755 mmHg 65%
    18:00 +29°C° 0 mm 4 m/s 756 mmHg 69%
    19:00 +28°C° 0 mm 3 m/s 756 mmHg 72%
    20:00 +27°C° 0 mm 3 m/s 757 mmHg 73%
    21:00 +27°C° 0 mm 3 m/s 757 mmHg 73%
    22:00 +26°C° 0 mm 3 m/s 758 mmHg 74%
    23:00 +26°C° 0 mm 3 m/s 757 mmHg 75%

    22 Novembre, Vendredi

    Heure Température Précipitation Vent Pression Humidité
    00:00 +26°C° 0 mm 4 m/s 757 mmHg 75%
    01:00 +25°C° 0 mm 4 m/s 757 mmHg 76%
    02:00 +25°C° 0 mm 4 m/s 756 mmHg 77%
    03:00 +25°C° 0 mm 4 m/s 756 mmHg 78%
    04:00 +25°C° 0 mm 4 m/s 756 mmHg 78%
    05:00 +25°C° 0 mm 4 m/s 757 mmHg 79%
    06:00 +25°C° 0 mm 4 m/s 757 mmHg 80%
    07:00 +25°C° 0 mm 4 m/s 758 mmHg 81%
    08:00 +27°C° 0 mm 5 m/s 758 mmHg 76%
    09:00 +29°C° 0 mm 6 m/s 758 mmHg 72%
    10:00 +30°C° 0 mm 6 m/s 758 mmHg 67%
    11:00 +32°C° 0 mm 6 m/s 757 mmHg 64%
    12:00 +33°C° 0 mm 6 m/s 756 mmHg 62%
    13:00 +34°C° 0 mm 6 m/s 756 mmHg 59%
    14:00 +34°C° 0 mm 5 m/s 755 mmHg 60%
    15:00 +34°C° 0 mm 5 m/s 755 mmHg 60%
    16:00 +33°C° 0 mm 4 m/s 754 mmHg 60%
    17:00 +31°C° 0 mm 3 m/s 755 mmHg 65%
    18:00 +30°C° 0 mm 3 m/s 756 mmHg 70%
    19:00 +28°C° 0 mm 2 m/s 756 mmHg 75%
    20:00 +28°C° 0.2 mm 2 m/s 756 mmHg 75%
    21:00 +28°C° 0.2 mm 2 m/s 757 mmHg 76%
    22:00 +27°C° 0.2 mm 2 m/s 757 mmHg 77%
    23:00 +27°C° 0.3 mm 2 m/s 757 mmHg 78%

    23 Novembre, Samedi

    Heure Température Précipitation Vent Pression Humidité
    00:00 +27°C° 0.3 mm 2 m/s 757 mmHg 79%
    01:00 +26°C° 0.3 mm 2 m/s 756 mmHg 80%
    02:00 +26°C° 0 mm 2 m/s 756 mmHg 81%
    03:00 +26°C° 0 mm 2 m/s 756 mmHg 82%
    04:00 +25°C° 0 mm 2 m/s 756 mmHg 84%
    05:00 +26°C° 0 mm 3 m/s 756 mmHg 84%
    06:00 +26°C° 0 mm 3 m/s 757 mmHg 84%
    07:00 +26°C° 0 mm 3 m/s 757 mmHg 85%
    08:00 +28°C° 0 mm 4 m/s 758 mmHg 78%
    09:00 +29°C° 0 mm 4 m/s 758 mmHg 71%
    10:00 +32°C° 0 mm 5 m/s 758 mmHg 65%
    11:00 +33°C° 0.4 mm 5 m/s 757 mmHg 62%
    12:00 +34°C° 0.4 mm 6 m/s 757 mmHg 59%
    13:00 +34°C° 0.4 mm 6 m/s 756 mmHg 56%
    14:00 +34°C° 0.2 mm 5 m/s 756 mmHg 58%
    15:00 +34°C° 0.2 mm 5 m/s 755 mmHg 59%
    16:00 +34°C° 0.2 mm 4 m/s 755 mmHg 60%
    17:00 +31°C° 0.4 mm 3 m/s 756 mmHg 65%
    18:00 +30°C° 0.4 mm 3 m/s 756 mmHg 71%
    19:00 +29°C° 0.4 mm 2 m/s 757 mmHg 76%
    20:00 +28°C° 0.2 mm 2 m/s 757 mmHg 78%
    21:00 +28°C° 0.2 mm 2 m/s 757 mmHg 80%
    22:00 +27°C° 0.2 mm 1 m/s 757 mmHg 81%
    23:00 +27°C° 0.4 mm 1 m/s 757 mmHg 82%

    24 Novembre, Dimanche

    Heure Température Précipitation Vent Pression Humidité
    00:00 +27°C° 0.4 mm 1 m/s 756 mmHg 83%
    01:00 +27°C° 0.4 mm 1 m/s 756 mmHg 83%
    02:00 +27°C° 0.2 mm 1 m/s 756 mmHg 84%
    03:00 +26°C° 0.2 mm 1 m/s 756 mmHg 85%
    04:00 +26°C° 0.2 mm 1 m/s 756 mmHg 87%
    05:00 +26°C° 0 mm 1 m/s 756 mmHg 86%
    06:00 +26°C° 0 mm 2 m/s 757 mmHg 86%
    07:00 +26°C° 0 mm 2 m/s 757 mmHg 86%
    08:00 +28°C° 0 mm 2 m/s 757 mmHg 79%
    09:00 +29°C° 0 mm 3 m/s 758 mmHg 71%
    10:00 +31°C° 0 mm 3 m/s 758 mmHg 64%
    11:00 +33°C° 0 mm 3 m/s 757 mmHg 61%
    12:00 +34°C° 0 mm 4 m/s 756 mmHg 57%
    13:00 +35°C° 0 mm 4 m/s 756 mmHg 54%
    14:00 +35°C° 0 mm 4 m/s 755 mmHg 55%
    15:00 +34°C° 0 mm 4 m/s 755 mmHg 55%
    16:00 +34°C° 0 mm 4 m/s 755 mmHg 56%
    17:00 +33°C° 0 mm 3 m/s 755 mmHg 61%
    18:00 +31°C° 0 mm 3 m/s 755 mmHg 65%
    19:00 +29°C° 0 mm 2 m/s 756 mmHg 69%
    20:00 +29°C° 0 mm 2 m/s 756 mmHg 71%
    21:00 +28°C° 0 mm 2 m/s 757 mmHg 73%
    22:00 +28°C° 0 mm 2 m/s 757 mmHg 75%
    23:00 +27°C° 0 mm 2 m/s 757 mmHg 76%
    Voir plus